| time (UTC) | temp F | wind direction | speed MPH | gust MPH | rain 1hr in | rain 24hr in | rain mn in | humidity % | barometer mb |
| 20260510195030 | 47 | 90 | 3.0 | 8.0 | 0.00 | 0.00 | 0.00 | 65 | 1013.0 |
| 20260510194533 | 47 | 35 | 2.0 | 6.0 | 0.00 | 0.00 | 0.00 | 65 | 1013.0 |
| 20260510194030 | 48 | 43 | 4.0 | 7.0 | 0.00 | 0.00 | 0.00 | 64 | 1013.0 |
| 20260510193531 | 48 | 80 | 3.0 | 7.0 | 0.00 | 0.00 | 0.00 | 64 | 1013.0 |
| 20260510193030 | 48 | 78 | 3.0 | 10.0 | 0.00 | 0.00 | 0.00 | 63 | 1013.0 |
| 20260510192529 | 48 | 59 | 4.0 | 12.0 | 0.00 | 0.00 | 0.00 | 63 | 1012.9 |
| 20260510192032 | 48 | 130 | 4.0 | 12.0 | 0.00 | 0.00 | 0.00 | 62 | 1013.0 |
| 20260510191532 | 49 | 62 | 4.0 | 10.0 | 0.00 | 0.00 | 0.00 | 62 | 1013.0 |
| 20260510191029 | 49 | 108 | 3.0 | 10.0 | 0.00 | 0.00 | 0.00 | 61 | 1013.1 |
| 20260510190528 | 49 | 58 | 3.0 | 13.0 | 0.00 | 0.00 | 0.00 | 61 | 1013.1 |
| 20260510190031 | 49 | 52 | 6.0 | 13.0 | 0.00 | 0.00 | 0.00 | 61 | 1013.0 |
| 20260510185527 | 50 | 55 | 3.0 | 9.0 | 0.00 | 0.00 | 0.00 | 61 | 1013.0 |
| 20260510185027 | 50 | 55 | 2.0 | 10.0 | 0.00 | 0.00 | 0.00 | 60 | 1013.1 |
| 20260510184533 | 50 | 36 | 4.0 | 10.0 | 0.00 | 0.00 | 0.00 | 60 | 1013.1 |
| 20260510184027 | 50 | 58 | 4.0 | 7.0 | 0.00 | 0.00 | 0.00 | 60 | 1013.0 |
| 20260510183527 | 50 | 62 | 2.0 | 8.0 | 0.00 | 0.00 | 0.00 | 60 | 1013.0 |
| 20260510183026 | 50 | 82 | 3.0 | 8.0 | 0.00 | 0.00 | 0.00 | 60 | 1013.0 |
| 20260510182526 | 51 | 105 | 3.0 | 8.0 | 0.00 | 0.00 | 0.00 | 59 | 1013.1 |
| 20260510182026 | 51 | 50 | 3.0 | 8.0 | 0.00 | 0.00 | 0.00 | 59 | 1013.1 |
| 20260510181557 | 51 | 84 | 2.0 | 9.0 | 0.00 | 0.00 | 0.00 | 58 | 1013.1 |
| 20260510181026 | 51 | 41 | 4.0 | 12.0 | 0.00 | 0.00 | 0.00 | 58 | 1013.0 |
| 20260510180525 | 51 | 130 | 5.0 | 12.0 | 0.00 | 0.00 | 0.00 | 58 | 1013.1 |
| 20260510180035 | 51 | 44 | 4.0 | 12.0 | 0.00 | 0.00 | 0.00 | 57 | 1013.1 |
| 20260510175524 | 51 | 42 | 3.0 | 12.0 | 0.00 | 0.00 | 0.00 | 58 | 1013.1 |
| 20260510175024 | 51 | 71 | 3.0 | 10.0 | 0.00 | 0.00 | 0.00 | 58 | 1013.1 |
| 20260510174533 | 51 | 46 | 3.0 | 11.0 | 0.00 | 0.00 | 0.00 | 57 | 1013.1 |
| 20260510174024 | 51 | 47 | 4.0 | 12.0 | 0.00 | 0.00 | 0.00 | 58 | 1013.2 |
| 20260510173524 | 52 | 40 | 7.0 | 12.0 | 0.00 | 0.00 | 0.00 | 57 | 1013.3 |
| 20260510173023 | 52 | 153 | 6.0 | 12.0 | 0.00 | 0.00 | 0.00 | 56 | 1013.2 |
| 20260510172524 | 53 | 5 | 4.0 | 13.0 | 0.00 | 0.00 | 0.00 | 55 | 1013.3 |
| 20260510172024 | 53 | 44 | 3.0 | 14.0 | 0.00 | 0.00 | 0.00 | 54 | 1013.3 |
| 20260510171523 | 54 | 62 | 5.0 | 14.0 | 0.00 | 0.00 | 0.00 | 53 | 1013.3 |
| 20260510171022 | 54 | 84 | 7.0 | 16.0 | 0.00 | 0.00 | 0.00 | 53 | 1013.3 |
| 20260510170523 | 53 | 71 | 4.0 | 12.0 | 0.00 | 0.00 | 0.00 | 53 | 1013.2 |
| 20260510170021 | 53 | 29 | 5.0 | 10.0 | 0.00 | 0.00 | 0.00 | 52 | 1013.4 |
| 20260510165520 | 52 | 51 | 2.0 | 11.0 | 0.00 | 0.00 | 0.00 | 55 | 1013.4 |
| 20260510165019 | 53 | 55 | 6.0 | 14.0 | 0.00 | 0.00 | 0.00 | 54 | 1013.5 |
| 20260510164522 | 53 | 95 | 5.0 | 13.0 | 0.00 | 0.00 | 0.00 | 54 | 1013.5 |
| 20260510164017 | 53 | 59 | 3.0 | 11.0 | 0.00 | 0.00 | 0.00 | 54 | 1013.6 |
| 20260510163518 | 54 | 38 | 5.0 | 11.0 | 0.00 | 0.00 | 0.00 | 53 | 1013.6 |
| 20260510163017 | 54 | 46 | 5.0 | 11.0 | 0.00 | 0.00 | 0.00 | 53 | 1013.7 |
| 20260510162516 | 54 | 40 | 3.0 | 19.0 | 0.00 | 0.00 | 0.00 | 54 | 1013.8 |
| 20260510162018 | 54 | 47 | 7.0 | 19.0 | 0.00 | 0.00 | 0.00 | 53 | 1013.7 |
| 20260510161516 | 54 | 43 | 4.0 | 9.0 | 0.00 | 0.00 | 0.00 | 52 | 1013.8 |
| 20260510161016 | 54 | 46 | 5.0 | 13.0 | 0.00 | 0.00 | 0.00 | 51 | 1013.8 |
| 20260510160515 | 54 | 40 | 6.0 | 14.0 | 0.00 | 0.00 | 0.00 | 50 | 1014.0 |
| 20260510160020 | 54 | 78 | 6.0 | 14.0 | 0.00 | 0.00 | 0.00 | 53 | 1014.1 |
| 20260510155515 | 54 | 72 | 6.0 | 12.0 | 0.00 | 0.00 | 0.00 | 53 | 1014.0 |
| 20260510155014 | 54 | 44 | 3.0 | 10.0 | 0.00 | 0.00 | 0.00 | 52 | 1014.0 |
| 20260510154513 | 54 | 65 | 5.0 | 14.0 | 0.00 | 0.00 | 0.00 | 52 | 1014.1 |
| 20260510154013 | 55 | 50 | 4.0 | 14.0 | 0.00 | 0.00 | 0.00 | 52 | 1014.1 |
| 20260510153512 | 55 | 55 | 4.0 | 12.0 | 0.00 | 0.00 | 0.00 | 54 | 1014.1 |
| 20260510153011 | 54 | 33 | 3.0 | 11.0 | 0.00 | 0.00 | 0.00 | 55 | 1014.2 |
| 20260510152511 | 54 | 40 | 3.0 | 12.0 | 0.00 | 0.00 | 0.00 | 54 | 1014.2 |
| 20260510152011 | 55 | 25 | 5.0 | 16.0 | 0.00 | 0.00 | 0.00 | 52 | 1014.4 |
| 20260510151510 | 55 | 30 | 6.0 | 16.0 | 0.00 | 0.00 | 0.00 | 55 | 1014.4 |
| 20260510151013 | 54 | 61 | 5.0 | 14.0 | 0.00 | 0.00 | 0.00 | 54 | 1014.3 |
| 20260510150509 | 54 | 29 | 5.0 | 13.0 | 0.00 | 0.00 | 0.00 | 54 | 1014.4 |
| 20260510150009 | 55 | 79 | 5.0 | 14.0 | 0.00 | 0.00 | 0.00 | 55 | 1014.5 |
| 20260510145510 | 55 | 54 | 6.0 | 13.0 | 0.00 | 0.00 | 0.00 | 54 | 1014.5 |
| 20260510145007 | 55 | 47 | 5.0 | 13.0 | 0.00 | 0.00 | 0.00 | 55 | 1014.5 |
| 20260510144509 | 54 | 90 | 3.0 | 14.0 | 0.00 | 0.00 | 0.00 | 56 | 1014.6 |
| 20260510144007 | 54 | 57 | 5.0 | 14.0 | 0.00 | 0.00 | 0.00 | 56 | 1014.7 |
| 20260510143507 | 54 | 42 | 4.0 | 14.0 | 0.00 | 0.00 | 0.00 | 60 | 1014.7 |
| 20260510143009 | 54 | 65 | 5.0 | 15.0 | 0.00 | 0.00 | 0.00 | 58 | 1014.7 |
| 20260510142508 | 54 | 53 | 5.0 | 15.0 | 0.00 | 0.00 | 0.00 | 58 | 1014.8 |
| 20260510142006 | 55 | 31 | 5.0 | 15.0 | 0.00 | 0.00 | 0.00 | 58 | 1014.9 |
| 20260510141505 | 55 | 49 | 5.0 | 15.0 | 0.00 | 0.00 | 0.00 | 58 | 1014.8 |
| 20260510141005 | 54 | 61 | 5.0 | 12.0 | 0.00 | 0.00 | 0.00 | 58 | 1014.7 |
| 20260510140503 | 53 | 52 | 5.0 | 13.0 | 0.00 | 0.00 | 0.00 | 60 | 1014.9 |
| 20260510140004 | 54 | 37 | 7.0 | 14.0 | 0.00 | 0.00 | 0.00 | 58 | 1015.0 |
| 20260510135503 | 54 | 26 | 6.0 | 14.0 | 0.00 | 0.00 | 0.00 | 60 | 1015.0 |
| 20260510135002 | 53 | 44 | 7.0 | 14.0 | 0.00 | 0.00 | 0.00 | 60 | 1015.0 |
| 20260510134502 | 53 | 118 | 4.0 | 15.0 | 0.00 | 0.00 | 0.00 | 60 | 1015.1 |
| 20260510134002 | 54 | 78 | 7.0 | 15.0 | 0.00 | 0.00 | 0.00 | 60 | 1015.1 |
| 20260510133502 | 53 | 348 | 5.0 | 12.0 | 0.00 | 0.00 | 0.00 | 60 | 1015.1 |
| 20260510133001 | 53 | 85 | 5.0 | 12.0 | 0.00 | 0.00 | 0.00 | 61 | 1015.2 |
| 20260510132601 | 53 | 42 | 6.0 | 12.0 | 0.00 | 0.00 | 0.00 | 60 | 1015.3 |
| 20260510132100 | 53 | 54 | 5.0 | 12.0 | 0.00 | 0.00 | 0.00 | 61 | 1015.3 |
| 20260510131600 | 54 | 32 | 5.0 | 17.0 | 0.00 | 0.00 | 0.00 | 61 | 1015.2 |
| 20260510131100 | 54 | 66 | 5.0 | 17.0 | 0.00 | 0.00 | 0.00 | 62 | 1015.2 |
| 20260510130559 | 54 | 9 | 6.0 | 13.0 | 0.00 | 0.00 | 0.00 | 60 | 1015.2 |
| 20260510130101 | 53 | 59 | 6.0 | 13.0 | 0.00 | 0.00 | 0.00 | 61 | 1015.3 |
| 20260510125557 | 54 | 38 | 8.0 | 13.0 | 0.00 | 0.00 | 0.00 | 60 | 1015.4 |
| 20260510125057 | 55 | 63 | 3.0 | 10.0 | 0.00 | 0.00 | 0.00 | 62 | 1015.3 |
| 20260510124557 | 54 | 51 | 4.0 | 11.0 | 0.00 | 0.00 | 0.00 | 61 | 1015.4 |
| 20260510124055 | 53 | 35 | 4.0 | 15.0 | 0.00 | 0.00 | 0.00 | 62 | 1015.5 |
| 20260510123555 | 53 | 42 | 5.0 | 15.0 | 0.00 | 0.00 | 0.00 | 61 | 1015.7 |
| 20260510123054 | 53 | 22 | 5.0 | 14.0 | 0.00 | 0.00 | 0.00 | 62 | 1015.7 |
| 20260510122552 | 53 | 14 | 6.0 | 14.0 | 0.00 | 0.00 | 0.00 | 63 | 1015.7 |
| 20260510122051 | 52 | 94 | 3.0 | 12.0 | 0.00 | 0.00 | 0.00 | 66 | 1015.9 |
| 20260510121550 | 51 | 39 | 6.0 | 15.0 | 0.00 | 0.00 | 0.00 | 64 | 1016.0 |
| 20260510121051 | 52 | 42 | 7.0 | 14.0 | 0.00 | 0.00 | 0.00 | 65 | 1016.0 |
| 20260510120548 | 51 | 51 | 5.0 | 16.0 | 0.00 | 0.00 | 0.00 | 65 | 1015.9 |
| 20260510120047 | 51 | 42 | 2.0 | 16.0 | 0.00 | 0.00 | 0.00 | 66 | 1016.0 |
| 20260510115547 | 51 | 52 | 5.0 | 15.0 | 0.00 | 0.00 | 0.00 | 66 | 1016.0 |
| 20260510115046 | 51 | 44 | 7.0 | 13.0 | 0.00 | 0.00 | 0.00 | 67 | 1016.1 |
| 20260510114551 | 51 | 36 | 6.0 | 13.0 | 0.00 | 0.00 | 0.00 | 67 | 1016.2 |
| 20260510114044 | 51 | 67 | 6.0 | 12.0 | 0.00 | 0.00 | 0.00 | 68 | 1016.3 |
| 20260510113544 | 51 | 40 | 5.0 | 16.0 | 0.00 | 0.00 | 0.00 | 68 | 1016.3 |
| 20260510113045 | 51 | 32 | 3.0 | 11.0 | 0.00 | 0.00 | 0.00 | 69 | 1016.3 |
| 20260510112542 | 51 | 38 | 3.0 | 13.0 | 0.00 | 0.00 | 0.00 | 70 | 1016.4 |
| 20260510112045 | 50 | 104 | 6.0 | 13.0 | 0.00 | 0.00 | 0.00 | 70 | 1016.5 |
| 20260510111542 | 50 | 290 | 6.0 | 16.0 | 0.00 | 0.00 | 0.00 | 70 | 1016.4 |
| 20260510111042 | 50 | 99 | 6.0 | 16.0 | 0.00 | 0.00 | 0.00 | 70 | 1016.5 |
| 20260510110540 | 50 | 59 | 6.0 | 14.0 | 0.00 | 0.00 | 0.00 | 72 | 1016.5 |
| 20260510110039 | 50 | 31 | 6.0 | 15.0 | 0.00 | 0.00 | 0.00 | 72 | 1016.5 |
| 20260510105539 | 50 | 68 | 6.0 | 15.0 | 0.00 | 0.00 | 0.00 | 72 | 1016.7 |
| 20260510105039 | 50 | 28 | 6.0 | 15.0 | 0.00 | 0.00 | 0.00 | 72 | 1016.6 |
| 20260510104540 | 50 | 70 | 7.0 | 14.0 | 0.00 | 0.00 | 0.00 | 73 | 1016.6 |
| 20260510104040 | 50 | 36 | 5.0 | 13.0 | 0.00 | 0.00 | 0.00 | 73 | 1016.7 |
| 20260510103537 | 50 | 65 | 7.0 | 13.0 | 0.00 | 0.00 | 0.00 | 73 | 1016.6 |
| 20260510103043 | 50 | 42 | 7.0 | 13.0 | 0.00 | 0.00 | 0.00 | 73 | 1016.7 |
| 20260510102537 | 50 | 67 | 5.0 | 16.0 | 0.00 | 0.00 | 0.00 | 74 | 1016.7 |
| 20260510102037 | 50 | 48 | 4.0 | 14.0 | 0.00 | 0.00 | 0.00 | 75 | 1016.7 |
| 20260510101537 | 50 | 68 | 8.0 | 16.0 | 0.00 | 0.00 | 0.00 | 74 | 1016.7 |
| 20260510101036 | 50 | 39 | 6.0 | 17.0 | 0.00 | 0.00 | 0.00 | 76 | 1016.7 |
| 20260510100537 | 49 | 55 | 6.0 | 17.0 | 0.00 | 0.00 | 0.00 | 75 | 1016.8 |
| 20260510100047 | 50 | 239 | 7.0 | 16.0 | 0.00 | 0.00 | 0.00 | 74 | 1016.8 |
| 20260510095535 | 50 | 79 | 5.0 | 11.0 | 0.00 | 0.00 | 0.00 | 75 | 1016.8 |
| 20260510095036 | 50 | 38 | 4.0 | 14.0 | 0.00 | 0.00 | 0.00 | 75 | 1016.8 |
| 20260510094534 | 50 | 52 | 7.0 | 14.0 | 0.00 | 0.00 | 0.00 | 74 | 1016.8 |
| 20260510094033 | 50 | 30 | 4.0 | 11.0 | 0.00 | 0.00 | 0.00 | 75 | 1016.8 |
| 20260510093532 | 50 | 69 | 4.0 | 12.0 | 0.00 | 0.00 | 0.00 | 75 | 1016.7 |
| 20260510093042 | 50 | 128 | 5.0 | 12.0 | 0.00 | 0.00 | 0.00 | 75 | 1016.8 |
| 20260510092532 | 49 | 52 | 5.0 | 13.0 | 0.00 | 0.00 | 0.00 | 76 | 1016.8 |
| 20260510092032 | 49 | 114 | 6.0 | 13.0 | 0.00 | 0.00 | 0.00 | 76 | 1016.9 |
| 20260510091536 | 49 | 77 | 7.0 | 12.0 | 0.00 | 0.00 | 0.00 | 76 | 1017.0 |
| 20260510091031 | 49 | 38 | 6.0 | 13.0 | 0.00 | 0.00 | 0.00 | 76 | 1017.0 |
| 20260510090528 | 49 | 59 | 6.0 | 13.0 | 0.00 | 0.00 | 0.00 | 76 | 1017.0 |
| 20260510090031 | 49 | 86 | 4.0 | 14.0 | 0.00 | 0.00 | 0.00 | 77 | 1017.2 |
| 20260510085527 | 48 | 52 | 4.0 | 11.0 | 0.00 | 0.00 | 0.00 | 77 | 1017.1 |
| 20260510085027 | 48 | 60 | 4.0 | 11.0 | 0.00 | 0.00 | 0.00 | 78 | 1017.2 |
| 20260510084532 | 48 | 46 | 5.0 | 12.0 | 0.00 | 0.00 | 0.00 | 79 | 1017.2 |
| 20260510084026 | 48 | 30 | 4.0 | 11.0 | 0.00 | 0.00 | 0.00 | 79 | 1017.2 |
| 20260510083528 | 47 | 77 | 5.0 | 13.0 | 0.00 | 0.00 | 0.00 | 80 | 1017.2 |
| 20260510083023 | 47 | 47 | 5.0 | 13.0 | 0.00 | 0.00 | 0.00 | 80 | 1017.3 |
| 20260510082523 | 47 | 39 | 5.0 | 13.0 | 0.00 | 0.00 | 0.00 | 80 | 1017.3 |
| 20260510082021 | 47 | 13 | 6.0 | 11.0 | 0.00 | 0.00 | 0.00 | 81 | 1017.3 |
| 20260510081525 | 47 | 66 | 4.0 | 13.0 | 0.00 | 0.00 | 0.00 | 81 | 1017.3 |
| 20260510081020 | 47 | 44 | 8.0 | 13.0 | 0.00 | 0.00 | 0.00 | 81 | 1017.3 |
| 20260510080519 | 47 | 51 | 4.0 | 13.0 | 0.00 | 0.00 | 0.00 | 82 | 1017.3 |
| 20260510080020 | 47 | 44 | 5.0 | 13.0 | 0.00 | 0.00 | 0.00 | 82 | 1017.3 |
| 20260510075519 | 47 | 67 | 5.0 | 11.0 | 0.00 | 0.00 | 0.00 | 82 | 1017.3 |
| 20260510075022 | 47 | 52 | 6.0 | 11.0 | 0.00 | 0.00 | 0.00 | 82 | 1017.3 |
| 20260510074518 | 47 | 42 | 3.0 | 10.0 | 0.00 | 0.00 | 0.00 | 83 | 1017.2 |
| 20260510074018 | 47 | 74 | 3.0 | 14.0 | 0.00 | 0.00 | 0.00 | 83 | 1017.2 |
| 20260510073518 | 47 | 43 | 5.0 | 14.0 | 0.00 | 0.00 | 0.00 | 83 | 1017.2 |
| 20260510073016 | 47 | 63 | 5.0 | 15.0 | 0.00 | 0.00 | 0.00 | 83 | 1017.1 |
| 20260510072515 | 47 | 66 | 7.0 | 15.0 | 0.00 | 0.00 | 0.00 | 83 | 1017.1 |
| 20260510072018 | 47 | 51 | 5.0 | 14.0 | 0.00 | 0.00 | 0.00 | 83 | 1017.1 |
| 20260510071519 | 47 | 46 | 6.0 | 13.0 | 0.00 | 0.00 | 0.00 | 83 | 1017.1 |
| 20260510071014 | 47 | 71 | 5.0 | 13.0 | 0.00 | 0.00 | 0.00 | 83 | 1017.1 |
| 20260510070516 | 47 | 52 | 7.0 | 14.0 | 0.00 | 0.00 | 0.00 | 83 | 1017.0 |
| 20260510070013 | 47 | 38 | 6.0 | 14.0 | 0.00 | 0.00 | 0.00 | 83 | 1017.0 |
| 20260510065512 | 47 | 63 | 5.0 | 14.0 | 0.00 | 0.00 | 0.00 | 84 | 1017.0 |
| 20260510065011 | 47 | 40 | 5.0 | 14.0 | 0.00 | 0.00 | 0.00 | 84 | 1017.0 |
| 20260510064510 | 47 | 360 | 4.0 | 16.0 | 0.00 | 0.00 | 0.00 | 84 | 1017.0 |
| 20260510064009 | 47 | 66 | 5.0 | 16.0 | 0.00 | 0.00 | 0.00 | 84 | 1017.0 |
| 20260510063511 | 47 | 52 | 6.0 | 16.0 | 0.00 | 0.00 | 0.00 | 83 | 1017.0 |
| 20260510063008 | 47 | 71 | 5.0 | 16.0 | 0.00 | 0.00 | 0.00 | 83 | 1016.9 |
| 20260510062508 | 47 | 42 | 5.0 | 14.0 | 0.00 | 0.00 | 0.00 | 83 | 1016.9 |
| 20260510062007 | 47 | 66 | 3.0 | 11.0 | 0.00 | 0.00 | 0.00 | 83 | 1016.7 |
| 20260510061507 | 47 | 39 | 4.0 | 11.0 | 0.00 | 0.00 | 0.00 | 83 | 1016.7 |
| 20260510061005 | 47 | 65 | 2.0 | 10.0 | 0.00 | 0.00 | 0.00 | 83 | 1016.8 |
| 20260510060505 | 47 | 32 | 3.0 | 13.0 | 0.00 | 0.00 | 0.00 | 83 | 1016.8 |
| 20260510060004 | 47 | 80 | 5.0 | 13.0 | 0.00 | 0.00 | 0.00 | 83 | 1016.7 |
| 20260510055503 | 47 | 59 | 4.0 | 18.0 | 0.00 | 0.00 | 0.00 | 83 | 1016.7 |
| 20260510055002 | 47 | 61 | 4.0 | 12.0 | 0.00 | 0.00 | 0.00 | 83 | 1016.7 |
| 20260510054505 | 47 | 51 | 4.0 | 14.0 | 0.00 | 0.00 | 0.00 | 83 | 1016.8 |
| 20260510054001 | 47 | 65 | 3.0 | 11.0 | 0.00 | 0.00 | 0.00 | 83 | 1016.7 |
| 20260510053502 | 47 | 77 | 4.0 | 10.0 | 0.00 | 0.00 | 0.00 | 83 | 1016.7 |
| 20260510053101 | 47 | 67 | 4.0 | 11.0 | 0.00 | 0.00 | 0.00 | 83 | 1016.7 |
| 20260510052602 | 47 | 57 | 4.0 | 12.0 | 0.00 | 0.00 | 0.00 | 83 | 1016.7 |
| 20260510052103 | 47 | 78 | 4.0 | 12.0 | 0.00 | 0.00 | 0.00 | 83 | 1016.8 |
| 20260510051559 | 47 | 38 | 4.0 | 10.0 | 0.00 | 0.00 | 0.00 | 84 | 1016.8 |
| 20260510051100 | 47 | 57 | 4.0 | 10.0 | 0.00 | 0.00 | 0.00 | 84 | 1017.0 |
| 20260510050558 | 47 | 76 | 1.0 | 8.0 | 0.00 | 0.00 | 0.00 | 84 | 1017.0 |
| 20260510045557 | 47 | 61 | 3.0 | 7.0 | 0.00 | 0.00 | 0.00 | 84 | 1017.0 |
| 20260510045057 | 47 | 64 | 3.0 | 10.0 | 0.00 | 0.00 | 0.00 | 84 | 1017.0 |
| 20260510044559 | 47 | 61 | 4.0 | 10.0 | 0.00 | 0.00 | 0.00 | 84 | 1017.0 |
| 20260510044056 | 47 | 64 | 4.0 | 10.0 | 0.00 | 0.00 | 0.00 | 84 | 1017.0 |
| 20260510043556 | 47 | 33 | 2.0 | 11.0 | 0.00 | 0.00 | 0.00 | 84 | 1016.9 |
| 20260510043058 | 47 | 38 | 3.0 | 12.0 | 0.00 | 0.00 | 0.00 | 83 | 1017.0 |
| 20260510042559 | 47 | 60 | 3.0 | 12.0 | 0.00 | 0.00 | 0.00 | 83 | 1016.9 |
| 20260510042055 | 47 | 34 | 4.0 | 11.0 | 0.00 | 0.00 | 0.00 | 83 | 1016.9 |
| 20260510041555 | 48 | 85 | 6.0 | 13.0 | 0.00 | 0.00 | 0.00 | 83 | 1016.9 |
| 20260510041055 | 48 | 70 | 5.0 | 14.0 | 0.00 | 0.00 | 0.00 | 83 | 1016.8 |
| 20260510040554 | 48 | 61 | 7.0 | 14.0 | 0.00 | 0.00 | 0.00 | 83 | 1016.8 |
| 20260510040059 | 47 | 65 | 6.0 | 14.0 | 0.00 | 0.00 | 0.00 | 84 | 1016.9 |
| 20260510035552 | 47 | 66 | 4.0 | 12.0 | 0.00 | 0.00 | 0.00 | 84 | 1016.7 |
| 20260510035052 | 47 | 94 | 6.0 | 12.0 | 0.00 | 0.00 | 0.00 | 84 | 1016.8 |
| 20260510034554 | 47 | 49 | 4.0 | 12.0 | 0.00 | 0.00 | 0.00 | 84 | 1016.8 |
| 20260510034051 | 47 | 44 | 3.0 | 13.0 | 0.00 | 0.00 | 0.00 | 84 | 1016.8 |
| 20260510033550 | 47 | 52 | 5.0 | 13.0 | 0.00 | 0.00 | 0.00 | 84 | 1016.9 |
| 20260510033111 | 47 | 59 | 3.0 | 11.0 | 0.00 | 0.00 | 0.00 | 84 | 1016.9 |
| 20260510032548 | 47 | 14 | 5.0 | 11.0 | 0.00 | 0.00 | 0.00 | 85 | 1016.9 |
| 20260510032054 | 47 | 36 | 3.0 | 10.0 | 0.00 | 0.00 | 0.00 | 85 | 1017.0 |
| 20260510031552 | 47 | 50 | 2.0 | 10.0 | 0.00 | 0.00 | 0.00 | 85 | 1017.1 |
| 20260510031046 | 47 | 44 | 5.0 | 10.0 | 0.00 | 0.00 | 0.00 | 85 | 1017.1 |
| 20260510030550 | 47 | 53 | 2.0 | 9.0 | 0.00 | 0.00 | 0.00 | 85 | 1017.2 |
| 20260510030049 | 47 | 38 | 2.0 | 9.0 | 0.00 | 0.00 | 0.00 | 85 | 1017.1 |
| 20260510025546 | 47 | 53 | 2.0 | 7.0 | 0.00 | 0.00 | 0.00 | 85 | 1017.3 |
| 20260510025046 | 47 | 51 | 3.0 | 13.0 | 0.00 | 0.00 | 0.00 | 85 | 1017.3 |
| 20260510024549 | 47 | 55 | 2.0 | 13.0 | 0.00 | 0.00 | 0.00 | 85 | 1017.3 |
| 20260510024146 | 47 | 105 | 4.0 | 10.0 | 0.00 | 0.00 | 0.00 | 85 | 1017.4 |
| 20260510023544 | 47 | 68 | 3.0 | 10.0 | 0.00 | 0.00 | 0.00 | 85 | 1017.3 |
| 20260510023045 | 47 | 32 | 3.0 | 10.0 | 0.00 | 0.00 | 0.00 | 85 | 1017.4 |
| 20260510022544 | 47 | 62 | 3.0 | 9.0 | 0.00 | 0.00 | 0.00 | 85 | 1017.3 |
| 20260510022044 | 47 | 68 | 3.0 | 9.0 | 0.00 | 0.00 | 0.00 | 85 | 1017.4 |
| 20260510021544 | 47 | 38 | 4.0 | 10.0 | 0.00 | 0.00 | 0.00 | 85 | 1017.4 |
| 20260510021043 | 47 | 61 | 3.0 | 10.0 | 0.00 | 0.00 | 0.00 | 85 | 1017.5 |
| 20260510020543 | 47 | 30 | 4.0 | 11.0 | 0.00 | 0.00 | 0.00 | 85 | 1017.5 |
| 20260510020045 | 47 | 63 | 3.0 | 14.0 | 0.00 | 0.00 | 0.00 | 85 | 1017.5 |
| 20260510015542 | 47 | 61 | 4.0 | 10.0 | 0.00 | 0.00 | 0.00 | 85 | 1017.4 |
| 20260510015041 | 47 | 57 | 4.0 | 10.0 | 0.00 | 0.00 | 0.00 | 85 | 1017.3 |
| 20260510014543 | 47 | 63 | 4.0 | 10.0 | 0.00 | 0.00 | 0.00 | 85 | 1017.4 |
| 20260510014041 | 47 | 47 | 2.0 | 13.0 | 0.00 | 0.00 | 0.00 | 84 | 1017.4 |
| 20260510013541 | 47 | 63 | 4.0 | 13.0 | 0.00 | 0.00 | 0.00 | 85 | 1017.4 |
| 20260510013041 | 47 | 53 | 3.0 | 14.0 | 0.00 | 0.00 | 0.00 | 85 | 1017.5 |
| 20260510012540 | 47 | 49 | 7.0 | 14.0 | 0.00 | 0.00 | 0.00 | 85 | 1017.6 |
| 20260510012040 | 47 | 58 | 4.0 | 12.0 | 0.00 | 0.00 | 0.00 | 85 | 1017.6 |
| 20260510011551 | 47 | 72 | 4.0 | 14.0 | 0.00 | 0.00 | 0.00 | 85 | 1017.6 |
| 20260510011038 | 47 | 39 | 4.0 | 14.0 | 0.00 | 0.00 | 0.00 | 85 | 1017.6 |
| 20260510010537 | 47 | 54 | 4.0 | 11.0 | 0.00 | 0.00 | 0.00 | 86 | 1017.6 |
| 20260510010037 | 47 | 63 | 3.0 | 11.0 | 0.00 | 0.00 | 0.00 | 86 | 1017.5 |
| 20260510005536 | 47 | 54 | 4.0 | 11.0 | 0.00 | 0.00 | 0.00 | 86 | 1017.5 |
| 20260510005038 | 47 | 13 | 3.0 | 10.0 | 0.00 | 0.00 | 0.00 | 86 | 1017.4 |
| 20260510004537 | 47 | 69 | 5.0 | 11.0 | 0.00 | 0.00 | 0.00 | 86 | 1017.3 |
| 20260510004035 | 47 | 68 | 4.0 | 11.0 | 0.00 | 0.00 | 0.00 | 86 | 1017.2 |
| 20260510003535 | 47 | 67 | 5.0 | 13.0 | 0.00 | 0.00 | 0.00 | 86 | 1017.2 |
| 20260510003058 | 47 | 68 | 4.0 | 13.0 | 0.00 | 0.00 | 0.00 | 86 | 1017.3 |
| 20260510002534 | 47 | 79 | 5.0 | 13.0 | 0.00 | 0.00 | 0.00 | 85 | 1017.2 |
| 20260510002034 | 47 | 63 | 5.0 | 11.0 | 0.00 | 0.00 | 0.00 | 85 | 1017.1 |
| 20260510001534 | 47 | 43 | 5.0 | 12.0 | 0.00 | 0.00 | 0.00 | 84 | 1017.2 |
| 20260510001032 | 47 | 60 | 4.0 | 12.0 | 0.00 | 0.00 | 0.00 | 84 | 1017.1 |
| 20260510000529 | 47 | 45 | 4.0 | 11.0 | 0.00 | 0.00 | 0.00 | 83 | 1017.1 |
| 20260510000030 | 47 | 67 | 5.0 | 11.0 | 0.00 | 0.00 | 0.00 | 83 | 1017.1 |
| 20260509235528 | 47 | 53 | 4.0 | 11.0 | 0.00 | 0.00 | 0.00 | 82 | 1017.2 |
| 20260509235027 | 48 | 70 | 4.0 | 10.0 | 0.00 | 0.00 | 0.00 | 82 | 1017.3 |
| 20260509234529 | 48 | 62 | 5.0 | 11.0 | 0.00 | 0.00 | 0.00 | 81 | 1017.2 |
| 20260509234025 | 48 | 56 | 5.0 | 11.0 | 0.00 | 0.00 | 0.00 | 80 | 1017.2 |
| 20260509233525 | 48 | 68 | 5.0 | 12.0 | 0.00 | 0.00 | 0.00 | 80 | 1017.3 |
| 20260509233024 | 48 | 61 | 5.0 | 12.0 | 0.00 | 0.00 | 0.00 | 79 | 1017.3 |
| 20260509232523 | 48 | 19 | 4.0 | 10.0 | 0.00 | 0.00 | 0.00 | 78 | 1017.3 |
| 20260509232024 | 49 | 49 | 4.0 | 11.0 | 0.00 | 0.00 | 0.00 | 77 | 1017.4 |
| 20260509231530 | 49 | 40 | 5.0 | 12.0 | 0.00 | 0.00 | 0.00 | 77 | 1017.4 |
| 20260509231024 | 49 | 71 | 3.0 | 12.0 | 0.00 | 0.00 | 0.00 | 76 | 1017.4 |
| 20260509230520 | 49 | 42 | 5.0 | 10.0 | 0.00 | 0.00 | 0.00 | 76 | 1017.4 |
| 20260509230025 | 49 | 76 | 4.0 | 10.0 | 0.00 | 0.00 | 0.00 | 75 | 1017.3 |
| 20260509225517 | 49 | 68 | 5.0 | 11.0 | 0.00 | 0.00 | 0.00 | 74 | 1017.3 |
| 20260509225016 | 50 | 55 | 5.0 | 11.0 | 0.00 | 0.00 | 0.00 | 74 | 1017.3 |
| 20260509224518 | 50 | 77 | 5.0 | 11.0 | 0.00 | 0.00 | 0.00 | 72 | 1017.2 |
| 20260509224016 | 50 | 42 | 4.0 | 10.0 | 0.00 | 0.00 | 0.00 | 70 | 1017.2 |
| 20260509223516 | 50 | 44 | 3.0 | 9.0 | 0.00 | 0.00 | 0.00 | 68 | 1017.1 |
| 20260509223016 | 50 | 50 | 3.0 | 11.0 | 0.00 | 0.00 | 0.00 | 67 | 1017.1 |
| 20260509222518 | 51 | 72 | 3.0 | 11.0 | 0.00 | 0.00 | 0.00 | 66 | 1017.2 |
| 20260509222015 | 51 | 59 | 2.0 | 9.0 | 0.00 | 0.00 | 0.00 | 64 | 1017.2 |
| 20260509221514 | 51 | 24 | 3.0 | 9.0 | 0.00 | 0.00 | 0.00 | 63 | 1017.1 |
| 20260509221014 | 51 | 45 | 3.0 | 8.0 | 0.00 | 0.00 | 0.00 | 62 | 1017.1 |
| 20260509220514 | 52 | 41 | 2.0 | 9.0 | 0.00 | 0.00 | 0.00 | 61 | 1017.1 |
| 20260509220013 | 52 | 57 | 3.0 | 11.0 | 0.00 | 0.00 | 0.00 | 60 | 1017.0 |
| 20260509215514 | 52 | 54 | 4.0 | 11.0 | 0.00 | 0.00 | 0.00 | 59 | 1016.9 |
| 20260509215013 | 52 | 77 | 5.0 | 11.0 | 0.00 | 0.00 | 0.00 | 58 | 1016.9 |
| 20260509214511 | 52 | 89 | 3.0 | 10.0 | 0.00 | 0.00 | 0.00 | 58 | 1016.9 |
| 20260509214011 | 53 | 15 | 3.0 | 12.0 | 0.00 | 0.00 | 0.00 | 57 | 1016.8 |
| 20260509213516 | 53 | 48 | 3.0 | 11.0 | 0.00 | 0.00 | 0.00 | 57 | 1016.9 |
| 20260509213012 | 53 | 31 | 4.0 | 10.0 | 0.00 | 0.00 | 0.00 | 56 | 1016.7 |
| 20260509212511 | 53 | 35 | 1.0 | 10.0 | 0.00 | 0.00 | 0.00 | 56 | 1016.7 |
| 20260509212013 | 53 | 60 | 4.0 | 10.0 | 0.00 | 0.00 | 0.00 | 55 | 1016.7 |
| 20260509211511 | 54 | 75 | 2.0 | 12.0 | 0.00 | 0.00 | 0.00 | 55 | 1016.5 |
| 20260509211011 | 54 | 100 | 3.0 | 12.0 | 0.00 | 0.00 | 0.00 | 54 | 1016.4 |
| 20260509210511 | 54 | 73 | 3.0 | 13.0 | 0.00 | 0.00 | 0.00 | 54 | 1016.3 |
| 20260509210014 | 54 | 66 | 5.0 | 13.0 | 0.00 | 0.00 | 0.00 | 55 | 1016.2 |
| 20260509205510 | 55 | 44 | 1.0 | 7.0 | 0.00 | 0.00 | 0.00 | 55 | 1016.3 |
| 20260509205010 | 55 | 55 | 1.0 | 7.0 | 0.00 | 0.00 | 0.00 | 55 | 1016.3 |
| 20260509204508 | 55 | 57 | 2.0 | 7.0 | 0.00 | 0.00 | 0.00 | 55 | 1016.3 |
| 20260509204012 | 56 | 43 | 1.0 | 9.0 | 0.00 | 0.00 | 0.00 | 55 | 1016.3 |
| 20260509203510 | 56 | 60 | 2.0 | 9.0 | 0.00 | 0.00 | 0.00 | 55 | 1016.1 |
| 20260509203009 | 56 | 30 | 1.0 | 6.0 | 0.00 | 0.00 | 0.00 | 55 | 1016.1 |
| 20260509202508 | 56 | 67 | 1.0 | 8.0 | 0.00 | 0.00 | 0.00 | 55 | 1016.1 |
| 20260509202010 | 56 | 27 | 2.0 | 8.0 | 0.00 | 0.00 | 0.00 | 55 | 1016.1 |
| 20260509201510 | 57 | 72 | 1.0 | 6.0 | 0.00 | 0.00 | 0.00 | 55 | 1016.0 |
| 20260509201008 | 57 | 55 | 0.0 | 6.0 | 0.00 | 0.00 | 0.00 | 55 | 1015.9 |
| 20260509200507 | 57 | 61 | 0.0 | 6.0 | 0.00 | 0.00 | 0.00 | 54 | 1015.8 |
| 20260509200008 | 57 | 49 | 0.0 | 6.0 | 0.00 | 0.00 | 0.00 | 54 | 1015.8 |